[[{"header":{"parameterUnit":"m.s-1","parameterCategory":2,"la1":30.2991,"la2":30.254,"lo1":-89.0895,"lo2":-89.0444,"dy":0.0017,"dx":0.0017,"nx":28,"ny":28,"refTime":"2025-04-11T21:00:00:Z","depth":"0","parameterNumber":2,"parameterNumberName":"U-component_of_CURRENTS"},"data":[0,0,0,0,0,0,0,0,0,0,0,0,0,0,0,0,0,0,0,0,0,0,0,0,0,0,0,0,0,0,0,0,0,0,0,0,0,0,0,0,0,0,0,0,0,0,0,0,0,0,0,0,0,0,0,0,0,0,0.1175,0.1175,0,0.1199,0.12,0.12,0.121,0.121,0.1209,0.1209,0.1226,0.1227,0.1227,0,0,0,0,0,0,0,0,0,0,0,0,0,0.1139,0.114,0.1175,0.1175,0.1175,0.1199,0.12,0.12,0.121,0.121,0.1209,0.1209,0.1226,0.1227,0.1227,0,0,0,0,0,0,0,0,0,0,0,0,0,0.1158,0.114,0.1175,0.1183,0.1184,0.1199,0.12,0.12,0.121,0.121,0.1209,0.1209,0.1226,0.1226,0.1227,0.1233,0,0,0.1229,0.123,0,0,0,0,0,0,0,0,0.1157,0.1159,0.1182,0.1183,0.1184,0.1202,0.1193,0.1211,0.121,0.12,0.1209,0.1209,0.1217,0.1219,0.1223,0.1234,0.1234,0.1229,0.123,0.123,0.123,0,0,0,0,0,0,0,0.1156,0.1158,0.1184,0.1182,0.1183,0.1187,0.119,0.1197,0.1208,0.1201,0.1201,0.1205,0.1218,0.1223,0.1224,0.1235,0.1229,0.123,0.1231,0.1231,0.1296,0.1297,0,0,0,0,0,0,0.1153,0.1157,0.1183,0.1185,0.117,0.1188,0.1191,0.1196,0.1208,0.121,0.1205,0.1205,0.1221,0.1223,0.1224,0.1263,0.123,0.1231,0.1231,0.1294,0.1296,0.1297,0,0,0,0,0,0,0.1152,0.1155,0.1182,0.1172,0.1175,0.1188,0.1194,0.1196,0.1201,0.1212,0.1213,0.1208,0.1221,0.1223,0.1238,0.1262,0.1231,0.1232,0.1293,0.1295,0.1296,0.132,0,0,0,0,0,0,0.1151,0.1155,0.1159,0.1172,0.1176,0.1194,0.1194,0.1197,0.1204,0.1204,0.1215,0.1216,0.1222,0.1237,0.1239,0.1263,0.1232,0.1291,0.1294,0.1296,0.1318,0.1323,0.1327,0,0,0,0,0,0.115,0.1157,0.1159,0.1162,0.118,0.1194,0.1197,0.1205,0.1204,0.1209,0.1219,0.1216,0.1254,0.1238,0.124,0.1265,0.129,0.1293,0.1296,0.1316,0.1322,0.1327,0,0,0,0,0,0,0.1147,0.1159,0.1161,0.1172,0.1182,0.1196,0.1202,0.1205,0.1216,0.1217,0.1223,0.1226,0.1251,0.1254,0.1237,0.1293,0.1275,0.1279,0.129,0.1296,0.13,0.1319,0.1233,0,0,0,0,0,0.1147,0.1153,0.1166,0.1174,0.118,0.119,0.1196,0.1201,0.1213,0.1217,0.1224,0.1241,0.1266,0.1275,0.1291,0.1313,0.1369,0.1335,0.134,0.1343,0.1362,0.1473,0.149,0.1307,0.1307,0.1307,0,0,0.1148,0.1156,0.1159,0.1174,0.1182,0.1197,0.1193,0.1204,0.122,0.1217,0.1238,0.1252,0.1274,0.1306,0.1319,0.131,0.1425,0.1347,0.135,0.1367,0.1478,0.1496,0.1512,0.1309,0.1308,0.1308,0,0,0.1156,0.1161,0.1169,0.1179,0.1192,0.1201,0.1203,0.1216,0.1226,0.1242,0.1257,0.129,0.1303,0.1342,0.136,0.1401,0.1444,0.14,0.144,0.1547,0.1563,0.1578,0.1677,0.17,0.1404,0.1405,0.1405,0,0.1157,0.1174,0.1174,0.1188,0.1203,0.1203,0.1223,0.1232,0.1248,0.1273,0.125,0.1324,0.133,0.1407,0.1418,0.1413,0.1479,0.1413,0.1555,0.1571,0.1586,0.1683,0.1709,0.1406,0.1406,0.1406,0.1406,0,0.1174,0.1189,0.1196,0.1215,0.1229,0.1245,0.126,0.1276,0.1281,0.1301,0.1361,0.1379,0.1431,0.1437,0.1434,0.1546,0.156,0.1546,0.1542,0.1606,0.1704,0.173,0.1408,0.1408,0.1407,0.1407,0,0,0.1172,0.1203,0.1206,0.1227,0.1248,0.1263,0.1294,0.1337,0.1379,0.139,0.146,0.1493,0.151,0.1534,0.1548,0.1629,0.1778,0.1631,0.1636,0.1731,0.2027,0.206,0.2092,0.1795,0.1799,0.1803,0.2053,0,0.1189,0.1224,0.1236,0.1275,0.1298,0.1317,0.1351,0.139,0.1421,0.1483,0.1524,0.1583,0.1546,0.1581,0.1657,0.1749,0.1849,0.1712,0.1949,0.1956,0.198,0.2124,0.2063,0.2284,0.208,0.2084,0.2087,0,0.1203,0.1229,0.1269,0.1323,0.1336,0.1357,0.1431,0.1463,0.1546,0.1577,0.1645,0.1673,0.1784,0.174,0.195,0.1867,0.1956,0.2022,0.2034,0.2078,0.204,0.2186,0.234,0.2232,0.2128,0.2125,0.2122,0,0.1207,0.1255,0.1292,0.1306,0.136,0.139,0.1422,0.1495,0.1544,0.1648,0.1711,0.1816,0.1909,0.2015,0.2126,0.2059,0.2375,0.2298,0.2421,0.2424,0.2427,0.2422,0.2508,0.2483,0.2482,0.2481,0.2481,0,0.1222,0.1251,0.1296,0.1314,0.1367,0.1402,0.1471,0.152,0.1616,0.1711,0.1761,0.1881,0.199,0.2154,0.2213,0.2425,0.2456,0.2482,0.2515,0.2432,0.2425,0.2372,0.2313,0.2491,0.2489,0.2487,0.2485,0,0.1215,0.1245,0.1287,0.1345,0.1365,0.14,0.148,0.1539,0.1632,0.1768,0.181,0.199,0.2211,0.2323,0.255,0.258,0.2679,0.2803,0.2696,0.2711,0.267,0.2615,0.2695,0.2617,0.2975,0.2977,0.298,0,0.1212,0.1235,0.1294,0.1319,0.1342,0.1398,0.1443,0.1531,0.1608,0.1846,0.1928,0.2179,0.2352,0.2688,0.2806,0.2971,0.2829,0.3008,0.2859,0.2717,0.268,0.2519,0.2431,0.2875,0.2876,0.2877,0.2878,0,0.1206,0.1226,0.1256,0.1309,0.1351,0.1409,0.1489,0.1551,0.1697,0.183,0.206,0.2219,0.2566,0.274,0.2975,0.305,0.2846,0.3034,0.2928,0.267,0.2465,0.2386,0.2643,0.2887,0.2886,0.2886,0.2885,0.2885,0.1191,0.1208,0.1249,0.1301,0.135,0.1423,0.1467,0.1579,0.171,0.1918,0.2105,0.2329,0.2611,0.2931,0.2985,0.3025,0.2957,0.2945,0.2914,0.278,0.2629,0.2911,0.3152,0.3153,0.3153,0.3154,0.3154,0,0.1178,0.1204,0.1246,0.1307,0.1356,0.1395,0.15,0.1549,0.1692,0.191,0.2097,0.24,0.261,0.2781,0.2944,0.2892,0.2723,0.2823,0.2552,0.2488,0.2801,0.2715,0.2822,0.2822,0.2822,0.2822,0.2822,0.2822,0.117,0.1203,0.1235,0.1304,0.1348,0.1407,0.1461,0.1539,0.1667,0.1881,0.2055,0.2238,0.2526,0.2772,0.2777,0.2722,0.2464,0.2429,0.2362,0.2539,0.2544,0.2548,0.245,0.2501,0.25,0.193,0.1926,0.1923]},{"header":{"parameterUnit":"m.s-1","parameterCategory":2,"la1":30.2991,"la2":30.254,"lo1":-89.0895,"lo2":-89.0444,"dy":0.0017,"dx":0.0017,"nx":28,"ny":28,"refTime":"2025-04-11T21:00:00:Z","depth":"0","parameterNumber":3,"parameterNumberName":"V-component_of_CURRENTS"},"data":[0,0,0,0,0,0,0,0,0,0,0,0,0,0,0,0,0,0,0,0,0,0,0,0,0,0,0,0,0,0,0,0,0,0,0,0,0,0,0,0,0,0,0,0,0,0,0,0,0,0,0,0,0,0,0,0,0,0,0.0014,0.0014,0,-0.0012,-0.0013,-0.0013,-0.0017,-0.0017,-0.0016,-0.0016,0.0014,0.0015,0.0016,0,0,0,0,0,0,0,0,0,0,0,0,0,0.0049,0.0049,0.0014,0.0014,0.0013,-0.0012,-0.0013,-0.0013,-0.0017,-0.0017,-0.0016,-0.0016,0.0014,0.0015,0.0016,0,0,0,0,0,0,0,0,0,0,0,0,0,0.0031,0.0049,0.0014,0.0007,0.0006,-0.0012,-0.0013,-0.0013,-0.0017,-0.0017,-0.0016,-0.0016,0.0014,0.0015,0.0016,0.0018,0,0,0.0019,0.0019,0,0,0,0,0,0,0,0,0.0032,0.003,0.0009,0.0008,0.0007,-0.0012,0.0011,-0.0,-0.0017,-0.0007,-0.0016,-0.0016,0.001,0.0011,0.0007,0.002,0.0021,0.0019,0.002,0.002,0.002,0,0,0,0,0,0,0,0.0033,0.0031,0.0005,0.0008,0.0007,0.0001,-0.0001,0.0009,0.0003,-0.0008,-0.0008,-0.0013,0.001,0.0006,0.0007,0.0021,0.0019,0.002,0.002,0.0021,0.004,0.004,0,0,0,0,0,0,0.0034,0.0032,0.0006,0.0004,0.0019,0.0,-0.0002,-0.0005,0.0001,0.0002,-0.0013,-0.0013,0.0004,0.0006,0.0009,0.0021,0.002,0.0021,0.0022,0.004,0.004,0.004,0,0,0,0,0,0,0.0035,0.0032,0.0007,0.0016,0.0013,-0.0,-0.0004,-0.0006,-0.0012,-0.0004,-0.0002,-0.0018,0.0004,0.0007,0.0014,0.0022,0.0021,0.0022,0.0041,0.004,0.004,0.004,0,0,0,0,0,0,0.0036,0.0033,0.0032,0.0016,0.0012,-0.0004,-0.0005,-0.0007,-0.0016,-0.0016,-0.0007,-0.0004,0.0004,0.0012,0.0015,0.0023,0.0023,0.0041,0.004,0.004,0.0041,0.004,0.004,0,0,0,0,0,0.0038,0.0037,0.0032,0.0029,0.0011,-0.0004,-0.0007,-0.0015,-0.0017,-0.0019,-0.0015,-0.0005,0.0013,0.0013,0.0016,0.0025,0.0041,0.004,0.004,0.0041,0.004,0.004,0,0,0,0,0,0,0.006,0.0036,0.003,0.0025,0.001,-0.0005,-0.0009,-0.0017,-0.0018,-0.0015,-0.0007,-0.0004,0.0003,0.0012,0.0011,0.0029,0.0029,0.003,0.0028,0.0028,0.0028,0.0051,0.0024,0,0,0,0,0,0.0062,0.0051,0.0031,0.0027,0.002,0.0004,-0.0003,-0.001,-0.0015,-0.0016,-0.0012,-0.0004,0.0004,0.0014,0.0019,0.0031,0.0052,0.0038,0.0038,0.0038,0.0058,0.0093,0.0098,0.0039,0.0039,0.0039,0,0,0.007,0.0055,0.0049,0.003,0.0019,0.0012,0.0001,-0.001,-0.0011,-0.001,-0.0007,-0.0008,0.0005,0.0015,0.002,0.0025,0.006,0.0038,0.0038,0.0058,0.0093,0.0099,0.0104,0.0039,0.0039,0.0039,0,0,0.0079,0.0066,0.0059,0.0046,0.0026,0.0016,0.0012,-0.0006,-0.0008,-0.0011,-0.0009,-0.0001,0.0003,0.002,0.0029,0.0032,0.0052,0.0027,0.0054,0.0087,0.0093,0.0098,0.0113,0.012,0.0034,0.0034,0.0034,0,0.0092,0.0081,0.0056,0.0047,0.0045,0.0019,0.002,0.0011,-0.0002,0.001,-0.0009,0.0014,0.0012,0.0049,0.0042,0.0035,0.0051,0.0054,0.0089,0.0094,0.01,0.0115,0.0122,0.0034,0.0034,0.0034,0.0034,0,0.0091,0.0087,0.0083,0.0064,0.0056,0.0053,0.0036,0.0034,0.0024,0.0023,0.0044,0.0039,0.0062,0.0053,0.0045,0.0086,0.0081,0.0078,0.0093,0.0106,0.012,0.0128,0.0034,0.0034,0.0034,0.0034,0,0,0.0119,0.009,0.009,0.0095,0.0069,0.0069,0.0067,0.0074,0.01,0.0077,0.012,0.0106,0.0108,0.0118,0.0114,0.0136,0.0164,0.0123,0.0124,0.0144,0.0229,0.0184,0.0188,0.0169,0.017,0.0172,0.0216,0,0.0134,0.0132,0.0109,0.012,0.0125,0.0108,0.0119,0.0121,0.0125,0.0156,0.0156,0.0184,0.0133,0.0152,0.0161,0.0182,0.0188,0.0152,0.0208,0.021,0.0175,0.0198,0.0165,0.0199,0.0224,0.0226,0.0227,0,0.0146,0.0146,0.0157,0.017,0.0172,0.0173,0.0207,0.021,0.0239,0.0248,0.0268,0.027,0.0301,0.025,0.0285,0.0266,0.0241,0.0241,0.0243,0.0214,0.0181,0.0193,0.0213,0.0031,0.0239,0.0238,0.0237,0,0.0191,0.0187,0.0203,0.0202,0.0204,0.0217,0.0221,0.0244,0.0282,0.0314,0.0365,0.0374,0.0427,0.0393,0.0365,0.0335,0.0404,0.0366,0.0297,0.0293,0.0285,0.0278,0.0147,0.0376,0.0376,0.0376,0.0375,0,0.0224,0.024,0.0227,0.0237,0.0278,0.0259,0.0313,0.0322,0.0372,0.0463,0.042,0.0519,0.0471,0.0497,0.0419,0.0394,0.0444,0.0316,0.0311,0.028,0.0271,0.0129,0.0046,0.0377,0.0377,0.0377,0.0376,0,0.0274,0.0259,0.0286,0.0293,0.0299,0.0328,0.0369,0.0423,0.0453,0.0577,0.06,0.0666,0.0705,0.0625,0.0613,0.0502,0.0356,0.0416,0.0368,0.0356,0.0096,0.0016,-0.0059,-0.0128,0.0353,0.0352,0.0352,0,0.0301,0.0316,0.0333,0.036,0.0363,0.0398,0.044,0.0461,0.0543,0.0694,0.0787,0.0853,0.0938,0.0864,0.0676,0.0522,0.0369,0.0366,0.029,0.0085,-0.0007,-0.0061,-0.0118,0.0275,0.0274,0.0273,0.0272,0,0.0362,0.0363,0.0385,0.0442,0.0481,0.0538,0.0607,0.0693,0.0774,0.0898,0.1098,0.1173,0.1087,0.0955,0.0699,0.0563,0.0224,0.034,0.0158,-0.0053,-0.0144,-0.0214,0.0224,0.0264,0.0265,0.0265,0.0266,0.0266,0.0416,0.0448,0.0482,0.0541,0.0594,0.0708,0.0808,0.092,0.1089,0.1326,0.1345,0.1487,0.1169,0.0835,0.0617,0.0134,0.0178,-0.0016,-0.0085,-0.0114,-0.0221,0.0181,0.019,0.019,0.0191,0.0191,0.0191,0,0.0498,0.0528,0.0586,0.0677,0.0777,0.0782,0.0952,0.1089,0.1342,0.1511,0.167,0.1542,0.1153,0.0722,0.0083,-0.0234,-0.0353,-0.0419,-0.0516,-0.0545,-0.0161,-0.021,-0.0324,-0.0324,-0.0323,-0.0323,-0.0323,-0.0323,0.0547,0.0622,0.0653,0.0831,0.091,0.109,0.1216,0.1415,0.1569,0.1799,0.1857,0.1858,0.1446,0.028,-0.0483,-0.0651,-0.0878,-0.0921,-0.101,-0.0791,-0.0759,-0.073,-0.0798,-0.1033,-0.1034,-0.1375,-0.1378,-0.1381]}],[{"header":{"parameterUnit":"m.s-1","parameterCategory":2,"la1":30.2991,"la2":30.254,"lo1":-89.0895,"lo2":-89.0444,"dy":0.0017,"dx":0.0017,"nx":28,"ny":28,"refTime":"2025-04-11T21:00:00:Z","depth":"2","parameterNumber":2,"parameterNumberName":"U-component_of_CURRENTS"},"data":[0,0,0,0,0,0,0,0,0,0,0,0,0,0,0,0,0,0,0,0,0,0,0,0,0,0,0,0,0,0,0,0,0,0,0,0,0,0,0,0,0,0,0,0,0,0,0,0,0,0,0,0,0,0,0,0,0,0,0.1169,0.1169,0,0.1188,0.1188,0.1188,0.1196,0.1196,0.1196,0.1196,0.1208,0.1209,0.1209,0,0,0,0,0,0,0,0,0,0,0,0,0,0.1135,0.1135,0.1169,0.1169,0.1169,0.1188,0.1188,0.1188,0.1196,0.1196,0.1196,0.1196,0.1208,0.1208,0.1209,0,0,0,0,0,0,0,0,0,0,0,0,0,0.1151,0.1135,0.1169,0.1176,0.1176,0.1188,0.1188,0.1188,0.1196,0.1196,0.1196,0.1196,0.1208,0.1208,0.1209,0.1213,0,0,0.1211,0.1211,0,0,0,0,0,0,0,0,0.115,0.1152,0.1174,0.1175,0.1176,0.119,0.1181,0.1196,0.1196,0.1188,0.1196,0.1196,0.1202,0.1203,0.1206,0.1213,0.1214,0.1211,0.1211,0.1211,0.1211,0,0,0,0,0,0,0,0.1149,0.1151,0.1176,0.1175,0.1176,0.1176,0.1179,0.1184,0.1195,0.1189,0.119,0.1192,0.1202,0.1206,0.1206,0.1214,0.1211,0.1211,0.1211,0.1212,0.1268,0.1269,0,0,0,0,0,0,0.1147,0.115,0.1175,0.1177,0.1163,0.1177,0.1179,0.1185,0.1195,0.1196,0.1192,0.1193,0.1205,0.1206,0.1207,0.1242,0.1211,0.1212,0.1212,0.1267,0.1268,0.127,0,0,0,0,0,0,0.1147,0.115,0.1175,0.1164,0.1167,0.1178,0.1184,0.1186,0.119,0.1197,0.1199,0.1195,0.1205,0.1206,0.1218,0.1241,0.1212,0.1212,0.1265,0.1267,0.1269,0.1292,0,0,0,0,0,0,0.1146,0.1149,0.1153,0.1164,0.1168,0.1184,0.1184,0.1186,0.1192,0.1192,0.12,0.1201,0.1205,0.1217,0.1219,0.1241,0.1213,0.1264,0.1266,0.1268,0.129,0.1295,0.1299,0,0,0,0,0,0.1144,0.1151,0.1153,0.1156,0.1173,0.1184,0.1186,0.1193,0.1192,0.1196,0.1204,0.1201,0.1233,0.1218,0.122,0.1243,0.1263,0.1266,0.1268,0.1288,0.1294,0.1299,0,0,0,0,0,0,0.1141,0.1153,0.1155,0.1166,0.1175,0.1186,0.1191,0.1193,0.1202,0.1203,0.1207,0.1209,0.1232,0.1233,0.1217,0.1268,0.1251,0.1254,0.1266,0.1271,0.1276,0.1293,0.1213,0,0,0,0,0,0.1141,0.1148,0.116,0.1168,0.1173,0.1181,0.1186,0.119,0.12,0.1203,0.1209,0.1223,0.1244,0.1253,0.1266,0.1286,0.133,0.1306,0.131,0.1314,0.133,0.1429,0.1445,0.1278,0.1278,0.1278,0,0,0.1142,0.115,0.1153,0.1167,0.1175,0.1187,0.1184,0.1193,0.1207,0.1203,0.1221,0.1233,0.1252,0.1281,0.1292,0.1284,0.1382,0.1317,0.132,0.1335,0.1434,0.1451,0.1465,0.128,0.128,0.128,0,0,0.1148,0.1154,0.1163,0.1172,0.1184,0.1191,0.1193,0.1204,0.1212,0.1225,0.1239,0.1269,0.1279,0.1314,0.133,0.1367,0.14,0.1367,0.1404,0.15,0.1515,0.1529,0.1598,0.1618,0.1371,0.1371,0.1372,0,0.1147,0.1165,0.1167,0.118,0.1194,0.1193,0.1211,0.1218,0.1231,0.1255,0.1233,0.1299,0.1303,0.1374,0.1384,0.1379,0.1431,0.1379,0.1508,0.1522,0.1536,0.1604,0.1625,0.1373,0.1373,0.1373,0.1372,0,0.1162,0.1178,0.1185,0.1203,0.1216,0.123,0.1243,0.1258,0.1261,0.1279,0.1334,0.1349,0.1399,0.1402,0.1399,0.1501,0.1505,0.15,0.1495,0.1554,0.1621,0.1644,0.1375,0.1374,0.1374,0.1374,0,0,0.1156,0.119,0.1193,0.1213,0.1233,0.1247,0.1274,0.1314,0.1353,0.136,0.1426,0.1454,0.1473,0.1495,0.1507,0.1578,0.1702,0.1578,0.1582,0.1648,0.1911,0.1855,0.1874,0.1726,0.173,0.1734,0.1916,0,0.1169,0.1204,0.1218,0.1255,0.1276,0.1296,0.1326,0.1362,0.139,0.1449,0.1486,0.1542,0.1506,0.1541,0.1607,0.1681,0.1763,0.1653,0.1843,0.1848,0.1794,0.1899,0.1694,0.1835,0.1937,0.1941,0.1944,0,0.118,0.1206,0.1245,0.1299,0.1311,0.1331,0.1402,0.1431,0.1509,0.1537,0.1602,0.1631,0.1727,0.1689,0.1859,0.1792,0.1861,0.191,0.1919,0.1878,0.1835,0.1795,0.1871,0.1981,0.1978,0.1975,0.1973,0,0.118,0.1227,0.1263,0.1278,0.1332,0.1362,0.1393,0.1462,0.151,0.1607,0.167,0.176,0.1841,0.1926,0.201,0.1954,0.2208,0.2144,0.2163,0.2159,0.2028,0.2005,0.2298,0.2297,0.2297,0.2296,0.2296,0,0.119,0.1218,0.1266,0.1285,0.1337,0.1373,0.144,0.1487,0.1579,0.1669,0.1721,0.183,0.1914,0.2048,0.2085,0.2205,0.2279,0.2205,0.2221,0.2027,0.2003,0.2155,0.2136,0.2303,0.2302,0.23,0.2299,0,0.1176,0.1211,0.1252,0.1314,0.1335,0.1369,0.1452,0.1508,0.16,0.1728,0.1771,0.193,0.2101,0.2182,0.2357,0.2323,0.2422,0.2454,0.2204,0.2187,0.2281,0.2261,0.2472,0.2472,0.2472,0.2472,0.2472,0,0.1172,0.1193,0.1258,0.1286,0.1311,0.1367,0.1412,0.1501,0.1573,0.1798,0.1874,0.2082,0.2215,0.2426,0.2413,0.248,0.2526,0.2329,0.217,0.2314,0.2309,0.2289,0.227,0.2007,0.2003,0.2,0.1997,0,0.1157,0.118,0.1211,0.1269,0.1315,0.1375,0.1454,0.1514,0.1656,0.178,0.199,0.2119,0.2305,0.2294,0.2368,0.2355,0.2277,0.2265,0.2547,0.1978,0.1886,0.1876,0.1871,0.1969,0.1972,0.1974,0.1976,0.1977,0.1137,0.1152,0.1197,0.1252,0.1308,0.1385,0.1431,0.1531,0.1654,0.1812,0.198,0.2089,0.2141,0.2131,0.2122,0.2067,0.2183,0.206,0.2065,0.2075,0.1973,0.1884,0.1948,0.1951,0.1953,0.1955,0.1957,0,0.1111,0.1139,0.1183,0.1252,0.1307,0.1354,0.1462,0.1501,0.1628,0.1732,0.1864,0.1753,0.1793,0.1853,0.1727,0.1723,0.1651,0.166,0.1557,0.1586,0.1612,0.1481,0.1329,0.1327,0.1326,0.1324,0,0,0.1097,0.1127,0.1158,0.1237,0.1291,0.1355,0.1413,0.147,0.1528,0.1531,0.1527,0.167,0.1771,0.152,0.1502,0.1414,0.1477,0.1346,0.1845,0.1751,0.1775,0.1838,0.167,0,0,0,0,0]},{"header":{"parameterUnit":"m.s-1","parameterCategory":2,"la1":30.2991,"la2":30.254,"lo1":-89.0895,"lo2":-89.0444,"dy":0.0017,"dx":0.0017,"nx":28,"ny":28,"refTime":"2025-04-11T21:00:00:Z","depth":"2","parameterNumber":3,"parameterNumberName":"V-component_of_CURRENTS"},"data":[0,0,0,0,0,0,0,0,0,0,0,0,0,0,0,0,0,0,0,0,0,0,0,0,0,0,0,0,0,0,0,0,0,0,0,0,0,0,0,0,0,0,0,0,0,0,0,0,0,0,0,0,0,0,0,0,0,0,-0.015,-0.015,0,-0.0171,-0.0171,-0.0171,-0.0172,-0.0172,-0.0172,-0.0172,-0.0154,-0.0154,-0.0154,0,0,0,0,0,0,0,0,0,0,0,0,0,-0.0122,-0.0123,-0.015,-0.015,-0.0151,-0.0171,-0.0171,-0.0171,-0.0172,-0.0172,-0.0172,-0.0172,-0.0154,-0.0154,-0.0154,0,0,0,0,0,0,0,0,0,0,0,0,0,-0.0137,-0.0123,-0.015,-0.0154,-0.0155,-0.0171,-0.0171,-0.0171,-0.0172,-0.0172,-0.0172,-0.0171,-0.0154,-0.0154,-0.0153,-0.0155,0,0,-0.0152,-0.0152,0,0,0,0,0,0,0,0,-0.0136,-0.0138,-0.0153,-0.0154,-0.0155,-0.017,-0.0155,-0.0164,-0.0172,-0.0164,-0.0172,-0.0171,-0.0157,-0.0156,-0.0159,-0.0154,-0.0153,-0.0152,-0.0152,-0.0151,-0.0151,0,0,0,0,0,0,0,-0.0135,-0.0137,-0.0157,-0.0154,-0.0155,-0.016,-0.0161,-0.0157,-0.016,-0.0165,-0.0165,-0.017,-0.0157,-0.016,-0.0159,-0.0153,-0.0152,-0.0152,-0.0151,-0.0151,-0.015,-0.015,0,0,0,0,0,0,-0.0134,-0.0136,-0.0156,-0.0158,-0.0146,-0.016,-0.0162,-0.0164,-0.0161,-0.0161,-0.017,-0.017,-0.0161,-0.0159,-0.0158,-0.0148,-0.0151,-0.0151,-0.0151,-0.0149,-0.015,-0.015,0,0,0,0,0,0,-0.0134,-0.0136,-0.0156,-0.0148,-0.0151,-0.0161,-0.0163,-0.0165,-0.0168,-0.0165,-0.0164,-0.0171,-0.0161,-0.0159,-0.0158,-0.0148,-0.0151,-0.015,-0.0149,-0.015,-0.015,-0.0135,0,0,0,0,0,0,-0.0133,-0.0135,-0.0135,-0.0148,-0.0152,-0.0164,-0.0164,-0.0165,-0.0171,-0.0171,-0.0166,-0.0164,-0.016,-0.0158,-0.0157,-0.0147,-0.015,-0.0149,-0.0149,-0.015,-0.0135,-0.0135,-0.0135,0,0,0,0,0,-0.0132,-0.013,-0.0135,-0.0137,-0.0151,-0.0164,-0.0166,-0.0172,-0.0171,-0.0173,-0.0172,-0.0165,-0.016,-0.0158,-0.0157,-0.0146,-0.0149,-0.0149,-0.015,-0.0135,-0.0135,-0.0135,0,0,0,0,0,0,-0.0112,-0.0131,-0.0136,-0.0139,-0.0151,-0.0165,-0.0166,-0.0172,-0.0174,-0.0171,-0.0168,-0.0167,-0.0163,-0.0161,-0.0159,-0.015,-0.0153,-0.0153,-0.0143,-0.0142,-0.0142,-0.0126,-0.015,0,0,0,0,0,-0.011,-0.0117,-0.0134,-0.0136,-0.0141,-0.0154,-0.016,-0.0165,-0.017,-0.0171,-0.017,-0.0168,-0.0165,-0.0159,-0.0159,-0.0152,-0.0154,-0.0146,-0.0145,-0.0145,-0.0132,-0.0118,-0.0115,-0.0152,-0.0152,-0.0152,0,0,-0.0103,-0.0115,-0.0118,-0.0133,-0.0142,-0.0147,-0.0156,-0.0164,-0.0164,-0.0168,-0.0165,-0.0168,-0.0165,-0.0159,-0.0156,-0.0154,-0.0144,-0.0146,-0.0145,-0.0132,-0.0118,-0.0114,-0.0111,-0.0152,-0.0152,-0.0152,0,0,-0.0095,-0.0103,-0.0107,-0.0117,-0.0133,-0.0141,-0.0144,-0.0158,-0.0159,-0.0163,-0.0164,-0.0161,-0.0161,-0.0152,-0.0148,-0.0147,-0.0147,-0.015,-0.0127,-0.0114,-0.011,-0.0107,-0.0137,-0.0137,-0.0145,-0.0145,-0.0144,0,-0.0083,-0.009,-0.0109,-0.0115,-0.0116,-0.0137,-0.0135,-0.0143,-0.0155,-0.0145,-0.016,-0.015,-0.0155,-0.013,-0.0135,-0.0143,-0.015,-0.0126,-0.0111,-0.0108,-0.0104,-0.0136,-0.0136,-0.0144,-0.0144,-0.0144,-0.0144,0,-0.0081,-0.0083,-0.0084,-0.0097,-0.0104,-0.0106,-0.012,-0.0122,-0.0129,-0.013,-0.0117,-0.0126,-0.0112,-0.0121,-0.0128,-0.0104,-0.0124,-0.0116,-0.0108,-0.0099,-0.0135,-0.0134,-0.0143,-0.0143,-0.0143,-0.0144,0,0,-0.0056,-0.0077,-0.0076,-0.0071,-0.0091,-0.0091,-0.0093,-0.0088,-0.0066,-0.0087,-0.0054,-0.0071,-0.0069,-0.0065,-0.0071,-0.0066,-0.0072,-0.008,-0.008,-0.0104,-0.0072,-0.0162,-0.0171,-0.0054,-0.0053,-0.0053,-0.0118,0,-0.0042,-0.0041,-0.0058,-0.0047,-0.0042,-0.0057,-0.005,-0.0049,-0.0045,-0.0021,-0.0028,-0.0006,-0.0049,-0.0033,-0.0037,-0.0045,-0.0064,-0.0057,-0.0082,-0.0084,-0.0157,-0.017,-0.0138,-0.0199,-0.0118,-0.0118,-0.0118,0,-0.003,-0.0029,-0.0016,-0.0006,-0.0003,-0.0001,0.0026,0.0029,0.0049,0.0055,0.0069,0.0069,0.0074,0.004,0.0011,0.002,-0.0031,-0.0055,-0.0057,-0.0139,-0.0171,-0.0188,-0.0201,-0.0117,-0.0117,-0.0117,-0.0117,0,0.0007,0.0007,0.0023,0.0023,0.0024,0.0038,0.0042,0.0059,0.0089,0.0114,0.0155,0.0141,0.0167,0.011,0.0045,0.0035,0.0009,-0.001,-0.015,-0.0159,-0.0135,-0.0143,-0.0043,-0.0043,-0.0043,-0.0043,-0.0043,0,0.0034,0.005,0.0044,0.0055,0.0091,0.0076,0.0123,0.0129,0.0167,0.0237,0.0205,0.0267,0.0194,0.0173,0.0077,-0.0038,0.0028,-0.0153,-0.0174,-0.0137,-0.0144,-0.0065,-0.0066,-0.0045,-0.0045,-0.0044,-0.0044,0,0.0071,0.0065,0.0092,0.0102,0.011,0.0137,0.0174,0.0217,0.0241,0.0337,0.0356,0.0374,0.0336,0.0232,0.0149,0.0014,-0.0093,-0.0155,-0.0137,-0.0157,-0.0289,-0.0289,-0.0334,-0.0337,-0.034,-0.0343,-0.0345,0,0.0092,0.0105,0.0132,0.0158,0.0165,0.0199,0.0233,0.0252,0.0311,0.0419,0.0482,0.0478,0.0479,0.0281,0.0074,-0.0143,-0.0134,-0.0288,-0.0316,-0.0299,-0.0315,-0.031,-0.0307,-0.0289,-0.029,-0.0292,-0.0293,0,0.0131,0.0139,0.016,0.0215,0.0255,0.0306,0.036,0.0416,0.0477,0.0561,0.0659,0.0665,0.0487,0.0285,-0.0025,-0.0164,-0.026,-0.0327,-0.0262,-0.0237,-0.0266,-0.0279,-0.0274,-0.0303,-0.0302,-0.0301,-0.0301,-0.03,0.0167,0.0189,0.022,0.0274,0.0337,0.0423,0.0476,0.0549,0.0652,0.0762,0.0766,0.0759,0.0518,0.0108,-0.0107,-0.0345,-0.0361,-0.0458,-0.0449,-0.044,-0.0439,-0.0474,-0.0552,-0.0552,-0.0553,-0.0553,-0.0553,0,0.0195,0.0224,0.0277,0.0358,0.0444,0.0464,0.0575,0.0612,0.0743,0.0816,0.0858,0.0629,0.0399,0.0154,-0.0216,-0.0472,-0.0436,-0.0531,-0.0417,-0.0408,-0.0399,-0.0391,-0.0493,-0.0493,-0.0493,-0.0494,0,0,0.021,0.0258,0.028,0.0428,0.0503,0.0616,0.0682,0.0727,0.0779,0.0824,0.082,0.073,0.0439,0.0178,-0.0115,-0.029,-0.0289,-0.0326,-0.0358,-0.0181,-0.0168,-0.0354,-0.0332,0,0,0,0,0]}],[{"header":{"parameterUnit":"m.s-1","parameterCategory":2,"la1":30.2991,"la2":30.254,"lo1":-89.0895,"lo2":-89.0444,"dy":0.0017,"dx":0.0017,"nx":28,"ny":28,"refTime":"2025-04-11T21:00:00:Z","depth":"4","parameterNumber":2,"parameterNumberName":"U-component_of_CURRENTS"},"data":[0,0,0,0,0,0,0,0,0,0,0,0,0,0,0,0,0,0,0,0,0,0,0,0,0,0,0,0,0,0,0,0,0,0,0,0,0,0,0,0,0,0,0,0,0,0,0,0,0,0,0,0,0,0,0,0,0,0,0.0685,0.0685,0,0.068,0.068,0.068,0.0693,0.0694,0.0694,0.0695,0.0651,0.0649,0.0648,0,0,0,0,0,0,0,0,0,0,0,0,0,0.0654,0.0654,0.0685,0.0685,0.0685,0.068,0.068,0.0679,0.0693,0.0694,0.0695,0.0695,0.0652,0.065,0.0648,0,0,0,0,0,0,0,0,0,0,0,0,0,0.0658,0.0655,0.0685,0.0692,0.0693,0.068,0.068,0.0679,0.0693,0.0694,0.0695,0.0696,0.0652,0.065,0.0647,0.0614,0,0,0.0639,0.0638,0,0,0,0,0,0,0,0,0.0658,0.0659,0.0691,0.0692,0.0693,0.069,0.0653,0.0656,0.0693,0.0691,0.0695,0.0696,0.0661,0.0658,0.0653,0.0612,0.061,0.0639,0.0638,0.0637,0.0636,0,0,0,0,0,0,0,0.0658,0.0659,0.0681,0.0691,0.0692,0.0678,0.068,0.0653,0.0669,0.0691,0.0693,0.0695,0.0661,0.0655,0.0652,0.0609,0.0639,0.0637,0.0635,0.0634,0.0606,0.0606,0,0,0,0,0,0,0.0664,0.0659,0.0681,0.0681,0.0679,0.0679,0.0681,0.0688,0.067,0.0669,0.0694,0.0696,0.0659,0.0655,0.065,0.0683,0.0637,0.0634,0.0633,0.0605,0.0606,0.0607,0,0,0,0,0,0,0.0663,0.0666,0.0681,0.0671,0.0672,0.0679,0.0687,0.0688,0.07,0.0673,0.0671,0.0708,0.066,0.0654,0.0637,0.0679,0.0633,0.0631,0.0604,0.0605,0.0606,0.0702,0,0,0,0,0,0,0.0662,0.0666,0.0676,0.0672,0.0673,0.0679,0.0686,0.0687,0.07,0.0702,0.0683,0.068,0.066,0.0641,0.0634,0.0675,0.0629,0.0603,0.0605,0.0606,0.0698,0.0706,0.0713,0,0,0,0,0,0.0661,0.067,0.0677,0.068,0.0687,0.0679,0.0678,0.0684,0.07,0.07,0.0691,0.0681,0.0647,0.0638,0.0631,0.0672,0.0602,0.0604,0.0606,0.0694,0.0704,0.0713,0,0,0,0,0,0,0.0655,0.0672,0.068,0.0692,0.069,0.0683,0.0688,0.0693,0.0688,0.0696,0.0676,0.067,0.0671,0.065,0.0642,0.0667,0.0629,0.0629,0.0699,0.0708,0.0715,0.0727,0.0626,0,0,0,0,0,0.066,0.0676,0.0679,0.0688,0.0693,0.0695,0.0696,0.07,0.0693,0.0694,0.0686,0.0678,0.0668,0.0671,0.0647,0.0655,0.0634,0.0679,0.0687,0.0694,0.0698,0.0696,0.0704,0.0613,0.0613,0.0613,0,0,0.0658,0.0671,0.0678,0.0689,0.0692,0.0697,0.0698,0.0704,0.0712,0.0687,0.07,0.0692,0.067,0.0681,0.0683,0.0675,0.071,0.0696,0.0703,0.0702,0.0699,0.0708,0.0716,0.0614,0.0614,0.0613,0,0,0.0657,0.0677,0.0689,0.0695,0.0706,0.0705,0.0712,0.0717,0.0727,0.0733,0.0723,0.0736,0.0725,0.0725,0.0722,0.0753,0.0739,0.0764,0.083,0.0829,0.0837,0.0844,0.0837,0.0842,0.0785,0.0785,0.0785,0,0.0654,0.0674,0.0687,0.0701,0.0704,0.0714,0.0718,0.0727,0.0727,0.0744,0.0748,0.0767,0.0746,0.0773,0.0796,0.0773,0.0773,0.0801,0.0841,0.0847,0.0852,0.0843,0.0848,0.079,0.0789,0.0789,0.0788,0,0.0661,0.0681,0.0689,0.0713,0.0714,0.072,0.0731,0.0749,0.0773,0.0792,0.083,0.0819,0.0843,0.0848,0.0836,0.0879,0.0866,0.0841,0.0822,0.0868,0.0855,0.0858,0.0797,0.0795,0.0793,0.0792,0,0,0.0639,0.0686,0.0689,0.0702,0.0722,0.0719,0.0746,0.077,0.0804,0.084,0.0881,0.0904,0.0938,0.0936,0.0938,0.095,0.0987,0.0933,0.0931,0.0935,0.0997,0.099,0.0992,0.0985,0.0986,0.0987,0.0977,0,0.0639,0.0668,0.0686,0.0702,0.0714,0.0735,0.0761,0.0789,0.0822,0.0865,0.0906,0.0942,0.0962,0.0992,0.1016,0.0995,0.0999,0.0992,0.0944,0.0942,0.0938,0.0996,0.0989,0.0979,0.0979,0.098,0.098,0,0.0634,0.0659,0.0682,0.0713,0.072,0.074,0.0781,0.0807,0.0875,0.0903,0.0977,0.1005,0.1071,0.1049,0.1086,0.1094,0.1055,0.1027,0.1025,0.0986,0.0941,0.0919,0.0985,0.0984,0.0984,0.0984,0.0983,0,0.0607,0.0645,0.0666,0.0678,0.0723,0.075,0.0781,0.084,0.0872,0.0946,0.0987,0.1062,0.1112,0.1109,0.1126,0.1105,0.1132,0.1078,0.1024,0.1022,0.0987,0.0979,0.1052,0.1052,0.1052,0.1052,0.1052,0,0.0591,0.0607,0.0671,0.0684,0.0716,0.0759,0.08,0.0842,0.0917,0.0963,0.1034,0.1075,0.1132,0.1172,0.1145,0.1141,0.116,0.1047,0.1028,0.1027,0.1024,0.0989,0.0982,0.1052,0.1052,0.1052,0.1052,0,0.0558,0.06,0.0628,0.069,0.0707,0.0742,0.0805,0.0835,0.0929,0.0989,0.1025,0.1113,0.1168,0.1211,0.1194,0.1171,0.1142,0.1108,0.1135,0.1114,0.1013,0.101,0.1033,0.1033,0.1033,0.1033,0.1033,0,0.0546,0.0564,0.0621,0.0631,0.0665,0.0718,0.0741,0.0828,0.0858,0.0999,0.1016,0.1117,0.1162,0.1164,0.1189,0.1169,0.113,0.112,0.104,0.1037,0.1015,0.1013,0.1011,0.1033,0.1033,0.1033,0.1033,0,0.0518,0.0549,0.0571,0.0597,0.0623,0.0635,0.069,0.0714,0.0827,0.0918,0.0996,0.1048,0.1099,0.1122,0.1146,0.1108,0.1147,0.1117,0.1114,0.1039,0.1036,0.1014,0.1012,0.1032,0.1032,0.1032,0.1032,0,0.0495,0.0502,0.0532,0.0545,0.0565,0.0562,0.0592,0.0643,0.0701,0.0877,0.0891,0.0995,0.108,0.1087,0.11,0.1107,0.1046,0.0995,0.0997,0.0998,0.0998,0.099,0.0969,0,0,0,0,0,0.0465,0.0458,0.0465,0.0471,0.0486,0.0501,0.0553,0.0593,0.0713,0.0747,0.0831,0.0877,0.0944,0.0982,0.0971,0.1044,0.1031,0.1027,0.0967,0.103,0.103,0.1037,0,0,0,0,0,0,0.0438,0.0449,0.0447,0.0407,0.04,0.0409,0.0444,0.052,0.0545,0.0681,0.0705,0.0829,0.0876,0.0938,0.0954,0.0969,0.0915,0.1095,0.1093,0.103,0.103,0.1031,0.1037,0,0,0,0,0]},{"header":{"parameterUnit":"m.s-1","parameterCategory":2,"la1":30.2991,"la2":30.254,"lo1":-89.0895,"lo2":-89.0444,"dy":0.0017,"dx":0.0017,"nx":28,"ny":28,"refTime":"2025-04-11T21:00:00:Z","depth":"4","parameterNumber":3,"parameterNumberName":"V-component_of_CURRENTS"},"data":[0,0,0,0,0,0,0,0,0,0,0,0,0,0,0,0,0,0,0,0,0,0,0,0,0,0,0,0,0,0,0,0,0,0,0,0,0,0,0,0,0,0,0,0,0,0,0,0,0,0,0,0,0,0,0,0,0,0,-0.0257,-0.0257,0,-0.0261,-0.0262,-0.0262,-0.0295,-0.0295,-0.0296,-0.0296,-0.0399,-0.0401,-0.0404,0,0,0,0,0,0,0,0,0,0,0,0,0,-0.0273,-0.0273,-0.0257,-0.0257,-0.0256,-0.0261,-0.0262,-0.0262,-0.0295,-0.0295,-0.0296,-0.0296,-0.0399,-0.0401,-0.0404,0,0,0,0,0,0,0,0,0,0,0,0,0,-0.0274,-0.0273,-0.0257,-0.0271,-0.0272,-0.0261,-0.0262,-0.0262,-0.0295,-0.0295,-0.0296,-0.0297,-0.0398,-0.0401,-0.0404,-0.0411,0,0,-0.0415,-0.0416,0,0,0,0,0,0,0,0,-0.0274,-0.0274,-0.0269,-0.027,-0.0271,-0.0275,-0.0305,-0.0316,-0.0294,-0.0289,-0.0296,-0.0297,-0.0364,-0.037,-0.0373,-0.0415,-0.042,-0.0415,-0.0417,-0.0419,-0.042,0,0,0,0,0,0,0,-0.0274,-0.0273,-0.0262,-0.0269,-0.027,-0.0275,-0.0277,-0.0307,-0.0327,-0.029,-0.0291,-0.0286,-0.0366,-0.0369,-0.0376,-0.0421,-0.0415,-0.0418,-0.042,-0.0422,-0.0498,-0.0498,0,0,0,0,0,0,-0.0266,-0.0273,-0.0262,-0.0262,-0.027,-0.0274,-0.0276,-0.0276,-0.0325,-0.0331,-0.0286,-0.0288,-0.0363,-0.0372,-0.038,-0.042,-0.0419,-0.0422,-0.0424,-0.0498,-0.0498,-0.0498,0,0,0,0,0,0,-0.0266,-0.0265,-0.0262,-0.0265,-0.0264,-0.0273,-0.0273,-0.0275,-0.0282,-0.032,-0.0329,-0.029,-0.0364,-0.0375,-0.0402,-0.0424,-0.0423,-0.0427,-0.0498,-0.0498,-0.0498,-0.0482,0,0,0,0,0,0,-0.0267,-0.0265,-0.0267,-0.0264,-0.0264,-0.0253,-0.0272,-0.0275,-0.0276,-0.0279,-0.0326,-0.0336,-0.0366,-0.0396,-0.0405,-0.0428,-0.0429,-0.0498,-0.0498,-0.0498,-0.0483,-0.0482,-0.0481,0,0,0,0,0,-0.0267,-0.0264,-0.0268,-0.0266,-0.0265,-0.0252,-0.0253,-0.0263,-0.0276,-0.0274,-0.0303,-0.0335,-0.0403,-0.0398,-0.0409,-0.0434,-0.0498,-0.0498,-0.0498,-0.0483,-0.0482,-0.0481,0,0,0,0,0,0,-0.0277,-0.0266,-0.0271,-0.0267,-0.0258,-0.0256,-0.0257,-0.0261,-0.0281,-0.0291,-0.033,-0.0341,-0.037,-0.0398,-0.0392,-0.0454,-0.0458,-0.046,-0.0444,-0.0443,-0.0442,-0.0427,-0.0432,0,0,0,0,0,-0.0277,-0.0271,-0.0262,-0.0259,-0.0254,-0.0256,-0.0254,-0.0257,-0.0269,-0.0278,-0.0309,-0.0346,-0.0377,-0.0405,-0.0429,-0.0465,-0.0483,-0.0488,-0.0487,-0.0486,-0.048,-0.0527,-0.053,-0.0498,-0.0498,-0.0498,0,0,-0.0281,-0.0273,-0.0271,-0.026,-0.0258,-0.0246,-0.0258,-0.0251,-0.0245,-0.0288,-0.0302,-0.0336,-0.0379,-0.0413,-0.0432,-0.0445,-0.0501,-0.0486,-0.0485,-0.048,-0.0528,-0.0531,-0.0534,-0.0498,-0.0498,-0.0498,0,0,-0.0271,-0.0277,-0.0264,-0.0255,-0.0243,-0.0242,-0.0237,-0.0236,-0.0242,-0.0251,-0.0284,-0.0324,-0.037,-0.0409,-0.0434,-0.0441,-0.0481,-0.046,-0.0463,-0.0509,-0.0512,-0.0515,-0.0524,-0.0529,-0.0475,-0.0475,-0.0475,0,-0.0275,-0.0261,-0.0258,-0.0241,-0.0233,-0.0237,-0.0221,-0.0222,-0.023,-0.0241,-0.0253,-0.0328,-0.0366,-0.0418,-0.0425,-0.0441,-0.0463,-0.0466,-0.0508,-0.0512,-0.0515,-0.0524,-0.0529,-0.0475,-0.0475,-0.0475,-0.0475,0,-0.025,-0.0243,-0.0235,-0.0217,-0.0207,-0.0195,-0.0189,-0.0191,-0.0203,-0.0216,-0.0257,-0.0307,-0.0359,-0.0385,-0.0411,-0.0464,-0.0467,-0.049,-0.0512,-0.0518,-0.0526,-0.0532,-0.0473,-0.0474,-0.0474,-0.0474,0,0,-0.0244,-0.0222,-0.0221,-0.021,-0.0194,-0.0181,-0.0173,-0.0171,-0.0174,-0.0207,-0.0225,-0.0294,-0.0334,-0.0364,-0.0414,-0.0465,-0.0505,-0.0493,-0.0496,-0.0502,-0.0587,-0.0538,-0.0539,-0.0547,-0.0548,-0.0549,-0.0577,0,-0.0227,-0.0198,-0.0188,-0.0164,-0.0149,-0.0149,-0.014,-0.0143,-0.0157,-0.0176,-0.0241,-0.0281,-0.0322,-0.0363,-0.0416,-0.0477,-0.0521,-0.0494,-0.058,-0.0582,-0.0539,-0.0545,-0.0553,-0.0581,-0.0582,-0.0583,-0.0584,0,-0.0203,-0.0187,-0.0164,-0.0141,-0.0135,-0.0125,-0.0119,-0.0111,-0.0139,-0.0154,-0.0209,-0.0253,-0.0327,-0.0362,-0.0471,-0.0456,-0.0517,-0.0566,-0.0569,-0.0532,-0.0543,-0.0579,-0.0593,-0.0593,-0.0592,-0.0591,-0.0591,0,-0.02,-0.0169,-0.0153,-0.0144,-0.0121,-0.0117,-0.0112,-0.0121,-0.0114,-0.0154,-0.0166,-0.0246,-0.0298,-0.0382,-0.0473,-0.0484,-0.0579,-0.0608,-0.0616,-0.0612,-0.0656,-0.0652,-0.0686,-0.0686,-0.0686,-0.0686,-0.0686,0,-0.0185,-0.0171,-0.0155,-0.0147,-0.0129,-0.0117,-0.0105,-0.011,-0.0116,-0.0108,-0.017,-0.0184,-0.0314,-0.0378,-0.0457,-0.0535,-0.0569,-0.0606,-0.0621,-0.0645,-0.064,-0.0658,-0.0655,-0.0687,-0.0687,-0.0687,-0.0687,0,-0.0185,-0.0175,-0.0155,-0.0135,-0.013,-0.0123,-0.0097,-0.0083,-0.0097,-0.0088,-0.0103,-0.0158,-0.0236,-0.0338,-0.0469,-0.0513,-0.0593,-0.0618,-0.0602,-0.0617,-0.0597,-0.0592,-0.0625,-0.0623,-0.0622,-0.0621,-0.062,0,-0.0183,-0.0175,-0.0154,-0.0143,-0.0137,-0.012,-0.01,-0.0086,-0.0058,-0.006,-0.0049,-0.0125,-0.0169,-0.0288,-0.0409,-0.0536,-0.0567,-0.0595,-0.0626,-0.0581,-0.0593,-0.059,-0.0587,-0.0618,-0.0618,-0.0618,-0.0617,0,-0.018,-0.018,-0.0165,-0.0147,-0.0127,-0.0083,-0.0053,-0.0024,0.0006,-0.0009,0.0007,-0.0059,-0.0139,-0.0254,-0.0357,-0.0454,-0.0566,-0.0584,-0.0588,-0.0617,-0.0575,-0.0587,-0.0585,-0.0613,-0.0614,-0.0614,-0.0615,0,-0.0187,-0.018,-0.0169,-0.0149,-0.0117,-0.0058,-0.0032,0.0017,0.0046,0.006,0.0067,-0.0021,-0.0083,-0.021,-0.0297,-0.0389,-0.0425,-0.0453,-0.0465,-0.0471,-0.0423,-0.0346,-0.0322,0,0,0,0,0,-0.0194,-0.0188,-0.0168,-0.0134,-0.0095,-0.0077,-0.0002,0.0032,0.0069,0.0095,0.0088,0.0027,-0.0096,-0.0156,-0.024,-0.0302,-0.0459,-0.0402,-0.0501,-0.0591,-0.0596,-0.0562,0,0,0,0,0,0,-0.0202,-0.0192,-0.0174,-0.0124,-0.0102,-0.0044,0.0004,0.0041,0.007,0.0086,0.0023,-0.0002,-0.013,-0.0068,-0.0253,-0.0282,-0.0351,-0.0468,-0.0469,-0.0588,-0.0592,-0.0596,-0.0563,0,0,0,0,0]}]]